GW6586 Weather Reports


Display with metric or nautical units.
time (UTC)temp
F
wind
direction
speed
MPH
gust
MPH
rain 1hr
in
rain 24hr
in
rain mn
in
humidity
%
barometer
mb
20260510033027 70 61 6.0 14.0 0.00 0.00 0.00 44 1024.9
20260510031531 69 73 7.0 17.0 0.00 0.00 0.00 44 1025.1
20260510030021 68 76 11.0 16.0 0.00 0.00 0.00 46 1025.1
20260510024526 68 45 9.0 17.0 0.00 0.00 0.00 46 1025.2
20260510023018 67 71 8.0 15.0 0.00 0.00 0.00 47 1025.3
20260510021558 66 47 8.0 17.0 0.00 0.00 0.00 49 1025.6
20260510020028 65 57 9.0 16.0 0.00 0.00 0.00 50 1025.7
20260510014531 64 82 7.0 14.0 0.00 0.00 0.00 52 1025.9
20260510013028 63 68 8.0 16.0 0.00 0.00 0.00 54 1025.8
20260510011529 62 138 11.0 18.0 0.00 0.00 0.00 54 1025.8
20260510010033 61 102 8.0 15.0 0.00 0.00 0.00 56 1025.9
20260510004527 60 90 9.0 16.0 0.00 0.00 0.00 57 1025.8
20260510001524 59 87 9.0 16.0 0.00 0.00 0.00 60 1025.7
20260510000026 58 31 9.0 14.0 0.00 0.00 0.00 60 1025.6
20260509234523 57 70 8.0 14.0 0.00 0.00 0.00 62 1025.5
20260509233032 56 78 8.0 14.0 0.00 0.00 0.00 63 1025.6
20260509231529 56 98 7.0 13.0 0.00 0.00 0.00 64 1025.4
20260509230035 55 103 7.0 13.0 0.00 0.00 0.00 63 1025.3
20260509224525 55 82 8.0 14.0 0.00 0.00 0.00 63 1025.1
20260509223002 55 102 8.0 13.0 0.00 0.00 0.00 63 1025.1
20260509221506 56 83 8.0 12.0 0.00 0.00 0.00 62 1025.1
20260509220017 56 96 8.0 12.0 0.00 0.00 0.00 62 1025.0
20260509214505 56 89 8.0 11.0 0.00 0.00 0.00 61 1024.9
20260509213013 56 71 6.0 10.0 0.00 0.00 0.00 60 1024.7
20260509211520 57 74 8.0 12.0 0.00 0.00 0.00 59 1024.7
20260509204515 57 84 7.0 13.0 0.00 0.00 0.00 58 1024.5
20260509203025 57 71 6.0 13.0 0.00 0.00 0.00 58 1024.4
20260509201514 58 86 8.0 13.0 0.00 0.00 0.00 57 1024.3
20260509200019 58 54 9.0 14.0 0.00 0.00 0.00 56 1024.1
20260509194506 58 60 8.0 14.0 0.00 0.00 0.00 56 1024.2
20260509191522 58 68 7.0 14.0 0.00 0.00 0.00 55 1024.1
20260509190008 58 74 6.0 13.0 0.00 0.00 0.00 55 1024.2
20260509184516 58 98 8.0 12.0 0.00 0.00 0.00 54 1024.2
20260509183026 59 93 8.0 13.0 0.00 0.00 0.00 53 1024.2
20260509181512 59 72 8.0 13.0 0.00 0.00 0.00 53 1024.3
20260509174527 58 54 7.0 11.0 0.00 0.00 0.00 54 1024.4
20260509173023 57 47 5.0 8.0 0.00 0.00 0.00 55 1024.6
20260509171531 58 82 5.0 8.0 0.00 0.00 0.00 54 1024.6
20260509170011 58 75 5.0 9.0 0.00 0.00 0.00 54 1024.5
20260509164521 58 90 6.0 10.0 0.00 0.00 0.00 53 1024.5
20260509160020 58 96 6.0 10.0 0.00 0.00 0.00 52 1024.5
20260509154528 58 101 7.0 9.0 0.00 0.00 0.00 51 1024.6
20260509153032 59 85 6.0 9.0 0.00 0.00 0.00 51 1024.7
20260509150024 59 94 5.0 8.0 0.00 0.00 0.00 49 1025.0
20260509144522 60 82 6.0 8.0 0.00 0.00 0.00 48 1025.0
20260509143028 60 98 7.0 10.0 0.00 0.00 0.00 47 1025.1
20260509141527 60 88 7.0 9.0 0.00 0.00 0.00 47 1025.2
20260509140025 61 94 7.0 9.0 0.00 0.00 0.00 46 1025.2
20260509134526 61 98 7.0 10.0 0.00 0.00 0.00 46 1025.2
20260509133022 61 79 7.0 9.0 0.00 0.00 0.00 46 1025.1
20260509131524 61 86 5.0 7.0 0.00 0.00 0.00 46 1025.2
20260509130012 62 100 5.0 9.0 0.00 0.00 0.00 45 1025.1
20260509124522 62 95 4.0 8.0 0.00 0.00 0.00 45 1024.9
20260509123010 63 134 6.0 10.0 0.00 0.00 0.00 43 1024.8
20260509121515 64 117 7.0 10.0 0.00 0.00 0.00 42 1024.7
20260509120023 64 94 8.0 11.0 0.00 0.00 0.00 42 1024.6
20260509114512 65 114 8.0 11.0 0.00 0.00 0.00 42 1024.5
20260509113020 65 101 8.0 10.0 0.00 0.00 0.00 43 1024.4
20260509111526 65 114 6.0 10.0 0.00 0.00 0.00 42 1024.4
20260509110013 66 107 6.0 8.0 0.00 0.00 0.00 41 1024.4
20260509104526 66 119 5.0 8.0 0.00 0.00 0.00 42 1024.4
20260509101520 67 111 4.0 7.0 0.00 0.00 0.00 41 1024.5
20260509100028 68 108 4.0 7.0 0.00 0.00 0.00 39 1024.5
20260509094515 68 110 3.0 6.0 0.00 0.00 0.00 39 1024.3
20260509093024 69 117 3.0 7.0 0.00 0.00 0.00 37 1024.4
20260509090033 71 113 4.0 7.0 0.00 0.00 0.00 37 1024.4
20260509084526 71 113 2.0 9.0 0.00 0.00 0.00 37 1024.4
20260509083026 72 126 4.0 7.0 0.00 0.00 0.00 36 1024.3
20260509080026 72 117 3.0 10.0 0.00 0.00 0.00 35 1024.2
20260509074516 72 109 3.0 10.0 0.00 0.00 0.00 35 1024.2
20260509073008 73 119 4.0 9.0 0.00 0.00 0.00 33 1024.1
20260509071511 73 61 4.0 10.0 0.00 0.00 0.00 34 1024.0
20260509064505 73 119 9.0 13.0 0.00 0.00 0.00 34 1023.8
20260509063025 73 88 5.0 15.0 0.00 0.00 0.00 35 1023.5
20260509061525 73 117 4.0 12.0 0.00 0.00 0.00 36 1023.5
20260509060011 72 77 7.0 14.0 0.00 0.00 0.00 37 1023.6
20260509054519 73 93 7.0 14.0 0.00 0.00 0.00 37 1023.6
20260509053005 73 95 9.0 13.0 0.00 0.00 0.00 36 1023.9
20260509051516 72 98 9.0 15.0 0.00 0.00 0.00 38 1024.1
20260509050023 72 144 8.0 16.0 0.00 0.00 0.00 39 1024.2
20260509044507 71 114 11.0 16.0 0.00 0.00 0.00 39 1024.4
20260509043036 71 63 7.0 14.0 0.00 0.00 0.00 40 1024.8
20260509041526 71 71 8.0 16.0 0.00 0.00 0.00 41 1025.2
20260509040013 70 90 7.0 16.0 0.00 0.00 0.00 42 1025.5
20260509034521 69 55 7.0 13.0 0.00 0.00 0.00 43 1025.8